Location: Aiyekoto
(8.4333°N, 4.3667°E)
Time: 14:56:52
(UTC+00:00)

Envisat - Visible Passes

Search period start: 04 August 2021 00:00
Search period end: 14 August 2021 00:00
Orbit: 764 x 766 km, 98.2° (Epoch: 03 August)

Date Brightness Start Highest point End Pass type
(mag) Time Alt. Az. Time Alt. Az. Time Alt. Az.
04 Aug 3.0 04:43:31 10° N 04:48:35 86° W 04:53:40 10° SSW visible
05 Aug 4.6 04:07:18 10° NE 04:11:49 33° E 04:16:20 10° SSE visible
06 Aug 5.9 03:33:26 10° E 03:35:02 11° E 03:36:37 10° ESE visible
06 Aug 3.5 05:09:08 10° N 05:13:51 41° WNW 05:18:35 10° SW visible
07 Aug 3.3 04:32:05 10° NNE 04:37:08 70° ESE 04:42:10 10° S visible
08 Aug 5.1 03:56:17 10° NE 04:00:21 24° E 04:04:25 10° SSE visible
09 Aug 3.1 04:57:27 10° N 05:02:24 56° WNW 05:07:21 10° SSW visible
10 Aug 3.9 04:20:45 10° NNE 04:25:40 50° ESE 04:30:34 10° S visible
11 Aug 5.6 03:45:31 10° ENE 03:48:52 18° E 03:52:14 10° SE visible
12 Aug 2.9 04:45:53 10° N 04:50:57 78° WNW 04:56:00 10° SSW visible
13 Aug 4.5 04:09:33 10° NE 04:14:11 36° E 04:18:49 10° SSE visible
